Location: New Frontier Mobile Home Park
(32.8448°N, 116.9675°W)
Time: 22:59:05
(UTC+00:00)

Ariane Rocket - Pass Details

Date: 14 July 2020
Orbit: 759 x 771 km, 98.7° (Epoch: 05 August)

Event Time Altitude Azimuth Distance (km) Brightness Sun altitude
Rises 03:53:49 0° 178° (S) 3,227 5.9 -11.0°
Reaches altitude 10° 03:56:10 10° 183° (S) 2,303 5.2 -11.4°
Maximum altitude 04:01:06 52° 259° (W) 953 3.8 -12.2°
Drops below altitude 10° 04:06:04 10° 336° (NNW) 2,312 6.5 -13.1°
Sets 04:08:27 0° 341° (NNW) 3,240 7.2 -13.5°
